Погода в Каркаралинске

Казахстан     49°24′44″N   75°28′12″E
темп.,
°C
ветер,
м/с
пор.,
м/с
влажн.,
%
обл.,
%
осадки,
мм/ч
давл.,
гПа
погр.,
м
25 февраля, чт
чт2500:00−23юз7168735 0.0 1022448
03:00−26юз819889 0.0 1024557
06:00−25юз10208618 0.0 1024893
09:00−23ююз10198472 0.0 10251268
12:00−21зюз15228086 0.1 10251613
15:00−22зюз141982100 0.1 10271375
18:00−24зюз121786100 0.1 10311078
21:00−27зюз101792100 0.1 1034817
26 февраля, пт
пт2600:00−29зюз71696100 0.1 1037415
03:00−30юз6159699 0.0 1039346
06:00−31юз6119598 0.0 1041245
09:00−30юз51093100 0.0 1042258
12:00−24юз588889 0.0 1042383
15:00−22зюз578467 0.0 1041517
18:00−25юз349149 0.0 104144
21:00−29ююз33890 0.0 104320
27 февраля, сб
сб2700:00−30ю33890 0.0 104321
03:00−30ю33880 0.0 104223
06:00−30ю33863 0.0 104122
09:00−27ю338421 0.0 104038
12:00−19ююз357456 0.0 1038265
15:00−15юз467587 0.0 1036471
18:00−18ююз348590 0.0 103643
21:00−21ю578986 0.0 1036107
28 февраля, вс
вс2800:00−22ю588882 0.0 1035123
03:00−21ю588418 0.0 1033145
06:00−16ююз7188459 0.0 1030416
09:00−12ююз82181100 0.0 1027554
12:00−9ююз112181100 0.0 1024683
15:00−7ююз122185100 0.0 1022681
18:00−6ююз101986100 0.1 1021635
21:00−8ююз91985100 0.0 1021518
1 марта, пн
пн100:00−7ююз102085100 0.0 1020539
03:00−6ююз92085100 0.0 1019577
06:00−7ююз91985100 0.0 1019534
09:00−6юз101985100 0.0 1018574
12:00−3юз101689100 0.1 1018764
15:00−2юз101685100 0.1 1017854
18:00−4юз91685100 0.1 1017651
21:00−5юз91788100 0.1 1019541